Bangor, ME

11:02 PM EDT on August 21, 2017 (GMT -0400)
Bangor International

Weather History for KBGR - November, 2012

Change the Weather History Date:

Friday, November 23, 2012

  Actual Average Record
Temperature  
Mean Temperature 39 °F 34 °F  
Max Temperature 52 °F 42 °F 68 °F (1931)
Min Temperature 26 °F 26 °F 7 °F (1929)
Degree Days  
Heating Degree Days 26 31  
Month to date heating degree days 661 615  
Since 1 July heating degree days 1344 1441  
Cooling Degree Days 0 0  
Month to date cooling degree days 0 0  
Year to date cooling degree days 395 318  
Moisture  
Dew Point 39 °F    
Average Humidity 86    
Maximum Humidity 100    
Minimum Humidity 71    
Precipitation  
Precipitation 0.00 in 0.15 in 2.51 in (1943)
Month to date precipitation 1.13 3.21  
Year to date precipitation 38.71 37.46  
Snow  
Snow 0.00 in 0.10 in 8.60 in (2011)
Month to date snowfall 4.0 1.1  
Since 1 July snowfall 4.0 1.2  
Since 1 September snowfall 4.0 1.2  
Snow Depth 0.00 in    
Sea Level Pressure  
Sea Level Pressure 29.91 in    
Wind  
Wind Speed 6 mph (South)    
Max Wind Speed 20 mph    
Max Gust Speed 25 mph    
Visibility 6 miles    
Events Fog    
T = Trace of Precipitation, MM = Missing Value Source: NWS Daily Summary

Daily Weather History Graph

Daily Weather History Graph

Search for Another Location

Airport or City:

Trip Planner

Search our weather history database for the weather conditions in past years. The results will help you decide how hot, cold, wet, or windy it might be!

Date:

Astronomy

Nov. 23, 2012 Rise Set
Actual Time 6:43 AM EST 3:59 PM EST
Civil Twilight 6:11 AM EST 4:32 PM EST
Nautical Twilight 5:35 AM EST 5:08 PM EST
Astronomical Twilight 5:00 AM EST 5:43 PM EST
Moon 1:21 PM EST (11/23) 1:48 AM EST (11/23)
Length of Visible Light 10h 21m
Length of Day
9h 16m
Waxing Gibbous, 79% of the Moon is Illuminated
Nov 23
Waxing Gibbous
Nov 28
Full
Dec 6
Last Quarter
Dec 13
New
Dec 20
First Quarter

Hourly Weather History & Observations

Time (EST) Temp. Windchill Dew Point Humidity Pressure Visibility Wind Dir Wind Speed Gust Speed Precip Events Conditions
12:00 AM 28.4 °F - 28.4 °F 100% 30.10 in 0.8 mi Calm Calm - N/A   Scattered Clouds
12:18 AM 26.6 °F - 26.6 °F 100% 30.09 in 0.5 mi Calm Calm - N/A Fog Light Freezing Fog
12:36 AM 28.4 °F 24.6 °F 28.4 °F 100% 30.08 in 0.2 mi SSW 3.5 mph - N/A Fog Light Freezing Fog
12:49 AM 30.2 °F - 30.2 °F 100% 30.08 in 0.5 mi Calm Calm - N/A Fog Light Freezing Fog
12:53 AM 30.9 °F - 30.0 °F 96% 30.09 in 0.2 mi Calm Calm - N/A Fog Light Freezing Fog
1:53 AM 35.1 °F 32.2 °F 35.1 °F 100% 30.07 in 1.5 mi South 3.5 mph - N/A   Mostly Cloudy
2:53 AM 33.1 °F 28.7 °F 33.1 °F 100% 30.06 in 3.0 mi SSW 4.6 mph - N/A   Scattered Clouds
3:53 AM 39.0 °F 33.4 °F 39.0 °F 100% 30.05 in 4.0 mi SSW 8.1 mph - N/A   Scattered Clouds
3:58 AM 39.2 °F 33.6 °F 39.2 °F 100% 30.05 in 1.8 mi SSW 8.1 mph - N/A   Overcast
4:19 AM 39.2 °F 33.6 °F 39.2 °F 100% 30.04 in 0.5 mi SSW 8.1 mph - N/A Fog Fog
4:53 AM 39.9 °F 35.1 °F 39.9 °F 100% 30.04 in 0.5 mi South 6.9 mph - N/A Fog Fog
5:53 AM 39.9 °F 35.8 °F 39.9 °F 100% 30.03 in 0.8 mi South 5.8 mph - N/A   Overcast
6:53 AM 41.0 °F 36.4 °F 41.0 °F 100% 30.02 in 0.8 mi SSW 6.9 mph - N/A   Overcast
7:23 AM 41.0 °F 36.4 °F 39.2 °F 93% 30.01 in 1.8 mi SSW 6.9 mph - N/A   Overcast
7:53 AM 41.0 °F 34.7 °F 39.9 °F 96% 30.02 in 2.5 mi SSW 10.4 mph - N/A   Overcast
8:51 AM 42.8 °F 38.6 °F 42.8 °F 100% 29.99 in 6.0 mi South 6.9 mph - N/A   Overcast
8:53 AM 42.1 °F 37.1 °F 42.1 °F 100% 30.00 in 6.0 mi South 8.1 mph - N/A   Overcast
9:53 AM 46.9 °F - 43.0 °F 86% 29.97 in 10.0 mi South 12.7 mph - N/A   Mostly Cloudy
10:07 AM 48.2 °F - 42.8 °F 82% 29.96 in 10.0 mi South 9.2 mph - N/A   Mostly Cloudy
10:41 AM 48.2 °F - 42.8 °F 82% 29.94 in 10.0 mi South 9.2 mph - N/A   Mostly Cloudy
10:53 AM 48.9 °F - 43.0 °F 80% 29.93 in 10.0 mi South 12.7 mph - N/A   Mostly Cloudy
11:53 AM 51.1 °F - 42.1 °F 71% 29.89 in 10.0 mi South 15.0 mph 21.9 mph N/A   Scattered Clouds
12:53 PM 51.1 °F - 42.1 °F 71% 29.86 in 10.0 mi South 15.0 mph - N/A   Scattered Clouds
1:53 PM 50.0 °F - 42.1 °F 74% 29.83 in 10.0 mi South 11.5 mph 21.9 mph N/A   Scattered Clouds
2:53 PM 48.9 °F - 41.0 °F 74% 29.82 in 10.0 mi South 15.0 mph - N/A   Scattered Clouds
3:53 PM 46.0 °F 40.2 °F 41.0 °F 83% 29.80 in 10.0 mi South 12.7 mph - N/A   Scattered Clouds
4:53 PM 45.0 °F 39.7 °F 41.0 °F 86% 29.78 in 10.0 mi SSE 10.4 mph - N/A   Scattered Clouds
5:53 PM 44.1 °F 38.6 °F 41.0 °F 89% 29.77 in 10.0 mi South 10.4 mph - N/A   Mostly Cloudy
6:53 PM 44.6 °F 38.1 °F 42.8 °F 93% 29.74 in 10.0 mi South 13.8 mph - N/A   Mostly Cloudy
7:53 PM 45.0 °F 38.9 °F 42.1 °F 90% 29.73 in 10.0 mi South 12.7 mph 21.9 mph N/A   Mostly Cloudy
8:53 PM 45.0 °F 41.2 °F 43.0 °F 93% 29.73 in 10.0 mi South 6.9 mph 17.3 mph N/A   Mostly Cloudy
9:16 PM 46.4 °F 41.9 °F 42.8 °F 87% 29.71 in 10.0 mi South 9.2 mph - N/A   Overcast
9:53 PM 46.0 °F 43.1 °F 43.0 °F 89% 29.70 in 10.0 mi South 5.8 mph - N/A   Overcast
10:06 PM 46.4 °F 44.3 °F 42.8 °F 87% 29.69 in 10.0 mi South 4.6 mph - N/A   Overcast
10:17 PM 46.4 °F 45.2 °F 42.8 °F 87% 29.68 in 10.0 mi South 3.5 mph - N/A   Overcast
10:53 PM 45.0 °F - 43.0 °F 93% 29.67 in 10.0 mi Calm Calm - N/A   Overcast
11:53 PM 44.1 °F - 43.0 °F 96% 29.64 in 10.0 mi Calm Calm - N/A   Overcast